SCP
0 0 0 0 0 0 0 0 0 0 0 0 0 0 0 0 -0 0 0 0 0 0 0 0 0 0 0 0 0 0 0 0 0 0 0 0 0 0 0 0 0 0 0 0 0
0 0 0 0 0 0 0 0 0 0 0 0 0 0 0 0 0 0 0 0 0 0 0 0 0 0 0 0 0 0 0 0 0 0 0 0 0 0 0 0 0 0 0 0 0
0 0 0 0 0 0 0 0 0 0 0 0 0 0 0 0 0 0 0 0 0 0 -0 0 0 0 0 0 0 0 0 0 0 0 0 0 0 0 0 0 0 0 -0 0 0
0 0 0 0 0 0 0 0 0 0 0 0 0 0 0 0 0 0 0 0 0 0 0 0 0 0 0 0 0 0 0 0 0 0 0 0 0 0 0 0 0 0 0 0 0
0 0 0 0 0 0 0 0 0 0 0 0 0 0 0 0 0 0 0 0 0 0 0 0 0 0 0 0 0 0 0 0 0 0 0 0 0 0 0 0 0 0 0 0 0
0 0 0 0 0 0 0 0 0 0 0 0 0 0 0 0 0 0 0 0 0 0 0 0 0 0 0 0 0 0 0 0 0 0 0 0 0 0 0 0 0 0 0 0 0
0 0 0 0 0 0 0 0 0 0 0 0 0 0 0 0 0 0 0 0 0 0 0 0 0 0 0 0 0 0 0 0 0 0 0 0 0 0 0 0 0 0 0 0 0
0 0 0 0 0 0 0 0 0 0 0 0 0 0 0 0 0 0 0 0 0 0 0 0 0 0 0 0 0 0 0 0 0 0 0 0 0 0 0 0 0 0 0 0 0
0 0 0 0 0 0 0 0 0 0 0 0 0 0 0 0 0 0 0 0 0 0 0 0 0 0 0 0 0 0 0 0 0 0 0 0 0 0 0 0 0 0 0 0 0
0 0 0 0 0 0 0 0 0 0 0 0 0 0 0 0 0 0 0 0 0 0 0 0 0 0 0 0 0 0 0 0 0 0 0 0 0 0 0 0 0 0 0 0 0
0 0 0 0 0 0 0 0 0 0 0 0 0 0 0 0 0 0 0 0 0 0 0 0 0 0 0 0 0 0 0 0 0 0 0 0 0 0 0 0 0 0 0 0 0
0 0 0 0 0 0 0 0 0 0 0 0 0 0 0 0 0 0 0 0 0 0 0 0 0 0 0 0 0 0 0 0 0 0 0 0 0 0 0 0 0 0 0 0 0
0 0 0 0 0 0 0 0 0 0 0 0 0 0 0 0 0 0 0 0 0 0 0 0 0 0 0 0 0 0 0 0 0 0 0 0 0 -0 0 0 0 0 0 0 0
0 0 0 0 0 0 0 0 0 0 0 0 0 0 0 0 0 0 0 0 0 0 0 0 0 0 0 0 0 0 0 0 0 0 0 0 0 0 -0 0 0 0 0 0 0
0 0 0 0 0 0 0 0 0 0 0 0 0 0 0 0 0 0 0 0 0 0 0 0 0 0 0 0 0 0 0 0 0 0 0 -0 0 -0 0 0 0 0 0 0 0
0 0 0 0 0 0 0 0 0 0 0 0 0 0 0 0 0 0 0 0 0 0 0 0 0 0 0 0 0 0 0 0 0 0 0 0 0 0 0 0 0 0 0 0 0
0 0 0 0 0 0 0 0 0 0 0 0 0 0 0 0 0 0 0 0 0 0 0 0 0 0 0 0 0 0 0 0 0 0 0 0 0 0 0 0 0 0 0 0 0
0 0 0 0 0 0 0 0 0 0 0 0 0 0 0 0 0 0 0 0 0 0 0 0 0 0 0 0 0 0 0 0 0 0 0 0 0 0 0 0 0 0 0 0 0
0 0 0 0 0 0 0 0 0 0 0 0 0 0 0 0 0 0 0 0 0 0 0 0 0 0 0 0 0 0 0 0 0 0 0 0 0 0 0 0 0 0 0 0 0
0 0 0 0 0 0 0 0 0 0 0 0 0 0 0 0 0 0 0 0 0 0 0 0 0 0 0 0 0 0 0 0 0 0 0 0 0 0 0 0 0 0 0 0 0
0 0 0 0 0 0 0 0 0 0 0 0 0 0 0 0 0 0 0 0 0 0 0 0 0 0 0 0 0 0 0 0 0 0 0 0 0 0 0 0 0 0 0 0 0
0 0 0 0 0 0 0 0 0 0 0 0 0 0 0 0 0 0 0 0 0 0 0 0 0 0 0 0 0 0 0 0 0 0 0 0 0 0 0 0 0 0 0 0 0
0 0 0 0 0 0 0 0 0 0 0 0 0 0 0 0 0 0 0 0 0 0 0 0 0 0 0 0 0 0 0 0 0 0 0 0 0 0 0 0 -0 -0 0 -0 -0
0 0 0 0 0 0 0 0 0 0 0 0 0 0 0 0 0 0 0 0 0 0 0 0 0 0 0 0 0 0 0 0 0 0 0 0 0 0 0 0 0 -0 -0 -0 -0
0 0 0 0 0 0 0 0 0 0 0 0 0 0 0 0 0 0 0 0 0 0 0 0 0 0 0 0 0 0 0 0 0 0 0 0 0 0 0 0 0 0 0 0 0
0 0 0 0 0 0 0 0 0 0 0 0 0 0 0 0 0 0 0 0 0 0 0 0 0 0 0 0 0 0 0 0 0 0 0 0 0 0 0 0 0 0 0 0 0
0 0 0 0 0 0 0 0 0 0 0 0 0 0 0 0 0 0 0 0 0 0 0 0 0 0 0 0 0 0 0 0 0 0 0 0 0 0 0 0 0 0 0 0 0
Wind_Speed_500mb
7 7 7 8 10 11 13 14 15 15 16 18 21 23 25 27 30 34 33 20 22 17 16 12 9 5 2 6 8 5 5 9 14 10 8 16 4 3 10 21 32 22 26 35 36
12 12 12 12 12 13 14 16 17 19 21 21 23 24 27 31 34 32 15 12 6 4 9 9 4 8 10 7 7 7 6 10 15 19 14 35 28 28 26 32 41 41 40 46 39
16 16 16 17 18 18 19 20 20 21 22 24 25 26 27 29 30 4 4 4 5 5 4 9 13 14 20 18 13 10 9 14 27 43 21 20 33 34 36 18 43 49 53 47 32
21 21 21 21 21 22 22 23 24 25 26 26 27 27 26 21 10 6 6 9 15 14 14 13 13 14 11 13 24 15 29 32 35 30 13 12 28 32 47 51 55 58 56 57 54
25 24 23 22 22 22 23 24 25 26 27 27 27 27 24 10 18 30 28 29 26 22 17 16 19 21 13 14 24 14 26 36 36 32 32 34 35 27 65 63 61 63 54 47 41
24 22 20 19 20 21 23 24 25 27 27 27 26 26 20 15 22 29 25 17 13 14 14 21 10 13 26 22 20 24 30 31 39 49 55 33 28 22 57 47 45 48 50 45 40
24 22 20 17 17 19 21 23 24 24 25 26 25 23 24 29 28 25 26 21 19 16 19 17 24 15 14 12 15 21 12 20 36 36 16 16 8 21 50 42 30 32 43 50 43
22 20 17 16 14 17 19 21 22 22 22 23 23 19 15 20 24 21 23 27 21 19 23 26 26 20 18 19 18 13 13 9 14 19 7 15 12 23 34 39 45 64 67 53 57
19 18 17 17 15 17 21 23 23 24 22 19 13 11 10 10 9 8 8 8 9 13 19 17 12 12 17 8 9 14 11 20 19 25 10 12 11 16 38 52 50 67 59 54 44
21 19 17 16 16 20 24 24 25 20 13 8 7 7 10 8 13 10 7 8 5 8 5 8 9 6 7 8 9 13 20 22 23 15 22 23 22 18 31 49 64 48 46 41 49
23 21 18 17 19 21 18 12 13 7 6 13 18 25 26 23 21 14 5 11 12 9 8 17 7 12 20 21 21 9 16 23 22 20 23 25 22 24 41 50 56 54 43 51 50
25 23 18 20 19 13 10 2 6 7 17 34 46 42 29 31 9 11 10 13 12 11 21 6 13 23 14 14 17 17 20 23 16 13 17 20 27 35 40 34 29 31 49 53 47
30 28 22 19 9 8 6 4 5 8 10 14 14 10 8 13 8 11 16 10 11 13 15 19 14 23 16 15 20 22 18 17 15 14 17 15 15 16 16 23 54 62 57 54 47
34 32 22 13 10 6 8 6 7 17 7 14 7 5 4 9 7 9 17 9 7 10 8 14 6 2 9 14 12 16 14 6 12 9 5 14 10 9 28 27 30 41 48 43 35
40 30 25 21 10 7 11 9 9 7 9 8 8 8 9 5 8 2 14 6 11 12 6 4 14 11 11 11 5 11 4 6 11 11 10 15 8 10 13 22 21 28 36 33 30
38 35 27 25 25 26 16 9 7 5 14 8 10 11 9 10 8 7 3 4 4 4 10 18 3 6 11 12 5 10 7 16 16 9 5 3 1 8 6 21 13 27 28 24 24
36 29 29 26 21 19 20 11 6 10 5 10 5 9 9 10 11 12 10 7 7 6 11 9 16 9 10 4 7 5 7 8 4 2 11 13 6 9 10 10 28 32 33 25 22
33 28 27 28 24 21 25 7 16 8 17 5 4 7 9 15 11 15 8 15 19 21 3 8 6 2 4 3 4 11 4 6 9 5 6 14 9 10 12 36 47 44 34 27 24
34 29 27 24 23 26 17 13 10 16 6 9 10 10 16 20 11 6 13 20 3 1 9 5 9 7 8 5 2 4 5 3 4 2 3 9 12 4 18 18 32 35 32 25 21
21 11 11 20 21 25 7 11 12 4 4 7 15 13 12 8 11 14 12 7 6 9 8 6 8 4 6 4 3 3 2 4 4 7 9 11 8 15 10 21 18 20 26 20 14
16 7 13 21 20 10 10 12 22 32 11 11 14 22 14 10 10 10 6 8 11 8 7 9 0 4 1 9 9 1 4 5 1 6 9 17 12 15 18 16 21 20 12 7 7
23 6 11 38 13 11 17 7 13 12 17 10 8 11 13 11 12 17 17 13 18 19 11 9 5 9 16 14 16 10 15 17 14 13 8 21 29 21 21 20 24 10 11 13 7
16 13 15 46 11 22 13 15 19 10 18 11 14 15 7 11 8 13 13 22 16 7 3 6 3 4 14 7 11 9 2 2 9 2 13 16 8 12 28 25 22 33 23 15 14
16 7 12 41 34 10 25 25 23 21 23 26 5 10 9 12 11 5 4 6 14 12 14 8 4 11 12 15 18 10 16 16 6 11 17 29 36 43 35 18 17 15 22 19 14
26 8 17 10 23 25 12 9 32 21 18 14 7 19 15 10 17 23 18 10 18 16 9 2 9 9 21 21 16 10 21 36 26 31 24 48 44 46 34 17 12 10 9 3 6
12 9 12 6 33 28 29 16 24 11 17 16 18 8 21 21 10 4 7 4 4 8 6 4 7 7 11 10 20 28 42 35 38 38 39 39 46 31 13 7 6 4 8 1 6
24 20 12 16 7 20 27 31 13 14 10 7 2 4 8 7 23 19 7 8 3 6 11 11 8 4 11 2 8 13 33 37 36 38 39 37 30 2 4 5 10 9 8 16 19
Wind_Direction_500mb
287 299 309 319 325 328 328 329 329 327 325 324 324 325 325 325 324 316 310 287 290 286 261 250 249 278 228 242 257 293 292 271 279 319 285 122 161 288 262 276 283 265 258 272 283
286 293 300 303 305 308 311 314 315 316 317 318 318 319 321 323 323 315 307 311 282 258 231 232 236 227 235 212 200 232 239 266 325 337 332 327 332 321 317 289 288 291 284 269 258
281 289 295 299 303 305 307 306 306 308 310 311 313 316 319 326 328 267 331 43 49 62 164 214 232 236 246 258 212 208 222 280 312 321 340 328 304 298 285 277 271 280 301 307 292
284 288 291 296 301 303 303 303 305 307 308 309 310 311 314 321 302 309 286 287 300 296 270 222 219 214 233 244 232 258 255 270 287 287 305 277 294 302 284 271 269 277 285 289 288
281 286 291 296 300 301 301 303 305 305 305 306 304 303 307 298 257 272 281 282 278 276 246 205 223 231 253 265 302 263 261 266 287 300 283 281 272 278 283 277 274 277 285 284 285
275 279 284 290 296 299 300 304 306 307 306 304 300 296 287 240 264 269 275 271 254 240 229 208 227 264 287 281 267 296 328 307 285 276 271 260 264 288 280 289 284 283 280 286 283
270 275 279 283 288 295 300 305 309 310 309 305 300 290 268 269 261 266 273 273 255 235 223 239 244 250 307 313 328 328 318 288 274 271 243 214 307 238 273 292 330 298 283 288 289
259 261 263 267 278 290 299 306 312 311 308 302 294 277 253 267 265 269 266 269 260 242 233 223 233 250 256 275 301 273 256 280 272 267 130 120 257 285 309 323 316 298 287 290 296
247 250 255 263 276 294 306 309 310 309 305 296 279 243 263 283 274 288 267 219 274 231 229 242 224 230 276 234 288 230 254 265 284 280 140 169 236 262 284 282 285 281 292 299 295
240 245 253 266 290 304 309 310 310 302 292 290 247 249 257 263 276 275 283 217 161 167 116 166 208 226 234 222 236 279 296 311 305 315 313 297 267 257 295 301 280 295 301 308 77
235 241 251 277 297 306 317 334 328 313 290 251 287 275 299 266 279 279 221 162 130 182 208 187 209 209 230 239 260 318 314 302 300 303 289 280 305 314 290 272 291 293 284 96 81
239 243 258 289 297 302 316 49 286 289 304 276 268 262 262 264 270 272 166 172 186 213 212 135 227 239 279 329 308 292 289 286 277 300 349 321 301 284 282 270 287 58 72 84 74
241 242 256 283 281 286 236 267 299 314 257 291 225 229 220 250 245 166 180 195 200 230 236 214 257 331 302 293 274 271 264 293 323 340 291 303 276 259 284 71 78 72 71 67 65
247 253 249 244 286 254 242 251 297 324 271 190 175 188 155 153 199 233 198 202 209 244 252 253 106 176 258 259 259 290 279 354 307 341 257 38 282 331 275 89 77 71 70 68 70
243 237 242 223 207 218 234 259 305 337 290 122 146 171 165 213 149 97 164 174 241 185 214 213 165 184 223 230 201 232 88 250 241 233 299 249 254 245 200 120 104 88 82 76 70
225 215 218 238 232 229 231 233 294 215 240 135 134 168 184 182 170 132 143 199 320 315 226 259 93 229 215 225 237 4 300 261 251 218 263 51 311 325 59 145 118 109 102 96 85
208 220 226 214 202 223 200 169 218 233 150 156 168 170 231 167 167 191 171 190 218 220 214 192 206 237 212 239 130 112 299 307 286 135 208 63 13 236 115 129 149 132 119 100 77
208 209 201 204 206 190 168 186 213 233 244 93 132 184 215 152 222 188 238 236 226 238 230 240 316 101 113 244 31 184 265 169 267 311 304 8 254 245 129 90 105 115 113 99 77
186 187 198 206 194 184 163 218 206 208 313 219 173 243 213 219 203 244 249 265 210 138 196 277 217 166 152 71 14 103 208 12 89 15 221 232 279 10 102 105 115 115 100 85 74
175 170 225 204 192 182 205 231 236 298 48 320 214 234 264 237 180 190 209 96 88 41 23 36 296 24 72 106 251 209 354 41 57 237 242 253 281 264 176 151 118 95 88 83 80
190 159 212 212 192 176 229 226 242 254 179 218 236 254 273 283 283 273 241 117 138 127 41 103 182 249 269 178 194 255 232 195 154 216 252 273 263 69 54 94 97 88 95 141 166
168 179 173 169 156 203 228 214 265 226 263 246 287 280 260 265 266 252 247 258 111 129 157 177 189 236 240 301 313 263 269 271 253 258 244 254 258 112 99 101 125 166 220 233 230
176 178 168 171 206 218 226 225 230 210 209 198 225 217 228 236 235 240 246 66 88 117 105 114 218 265 316 277 45 77 242 222 281 253 237 269 262 136 145 160 191 236 231 233 225
163 167 170 200 225 251 220 229 215 217 236 225 259 262 235 237 261 238 217 117 97 101 99 63 184 185 224 264 333 296 294 272 166 274 289 271 285 290 293 315 337 227 237 201 215
180 222 186 192 217 227 261 274 224 202 216 219 234 235 215 227 239 239 232 204 127 131 104 5 247 220 255 272 300 290 275 272 270 259 255 272 280 276 290 317 109 125 136 170 257
191 182 181 295 200 202 213 231 231 260 165 202 231 251 217 234 205 212 66 84 143 136 137 92 265 33 284 260 263 267 262 267 267 264 264 265 267 284 341 84 179 173 153 335 319
208 190 157 190 198 193 210 222 224 198 189 244 268 43 157 6 71 90 99 10 41 143 170 168 160 145 255 65 356 301 249 247 254 260 264 268 273 13 271 107 70 45 325 289 288
Wind_Speed_850mb
7 7 7 8 10 11 13 14 15 15 16 18 21 23 25 27 30 34 33 20 22 17 16 12 9 5 2 6 8 5 5 9 14 10 8 16 4 3 10 21 32 22 26 35 36
12 12 12 12 12 13 14 16 17 19 21 21 23 24 27 31 34 32 15 12 6 4 9 9 4 8 10 7 7 7 6 10 15 19 14 35 28 28 26 32 41 41 40 46 39
16 16 16 17 18 18 19 20 20 21 22 24 25 26 27 29 30 4 4 4 5 5 4 9 13 14 20 18 13 10 9 14 27 43 21 20 33 34 36 18 43 49 53 47 32
21 21 21 21 21 22 22 23 24 25 26 26 27 27 26 21 10 6 6 9 15 14 14 13 13 14 11 13 24 15 29 32 35 30 13 12 28 32 47 51 55 58 56 57 54
25 24 23 22 22 22 23 24 25 26 27 27 27 27 24 10 18 30 28 29 26 22 17 16 19 21 13 14 24 14 26 36 36 32 32 34 35 27 65 63 61 63 54 47 41
24 22 20 19 20 21 23 24 25 27 27 27 26 26 20 15 22 29 25 17 13 14 14 21 10 13 26 22 20 24 30 31 39 49 55 33 28 22 57 47 45 48 50 45 40
24 22 20 17 17 19 21 23 24 24 25 26 25 23 24 29 28 25 26 21 19 16 19 17 24 15 14 12 15 21 12 20 36 36 16 16 8 21 50 42 30 32 43 50 43
22 20 17 16 14 17 19 21 22 22 22 23 23 19 15 20 24 21 23 27 21 19 23 26 26 20 18 19 18 13 13 9 14 19 7 15 12 23 34 39 45 64 67 53 57
19 18 17 17 15 17 21 23 23 24 22 19 13 11 10 10 9 8 8 8 9 13 19 17 12 12 17 8 9 14 11 20 19 25 10 12 11 16 38 52 50 67 59 54 44
21 19 17 16 16 20 24 24 25 20 13 8 7 7 10 8 13 10 7 8 5 8 5 8 9 6 7 8 9 13 20 22 23 15 22 23 22 18 31 49 64 48 46 41 49
23 21 18 17 19 21 18 12 13 7 6 13 18 25 26 23 21 14 5 11 12 9 8 17 7 12 20 21 21 9 16 23 22 20 23 25 22 24 41 50 56 54 43 51 50
25 23 18 20 19 13 10 2 6 7 17 34 46 42 29 31 9 11 10 13 12 11 21 6 13 23 14 14 17 17 20 23 16 13 17 20 27 35 40 34 29 31 49 53 47
30 28 22 19 9 8 6 4 5 8 10 14 14 10 8 13 8 11 16 10 11 13 15 19 14 23 16 15 20 22 18 17 15 14 17 15 15 16 16 23 54 62 57 54 47
34 32 22 13 10 6 8 6 7 17 7 14 7 5 4 9 7 9 17 9 7 10 8 14 6 2 9 14 12 16 14 6 12 9 5 14 10 9 28 27 30 41 48 43 35
40 30 25 21 10 7 11 9 9 7 9 8 8 8 9 5 8 2 14 6 11 12 6 4 14 11 11 11 5 11 4 6 11 11 10 15 8 10 13 22 21 28 36 33 30
38 35 27 25 25 26 16 9 7 5 14 8 10 11 9 10 8 7 3 4 4 4 10 18 3 6 11 12 5 10 7 16 16 9 5 3 1 8 6 21 13 27 28 24 24
36 29 29 26 21 19 20 11 6 10 5 10 5 9 9 10 11 12 10 7 7 6 11 9 16 9 10 4 7 5 7 8 4 2 11 13 6 9 10 10 28 32 33 25 22
33 28 27 28 24 21 25 7 16 8 17 5 4 7 9 15 11 15 8 15 19 21 3 8 6 2 4 3 4 11 4 6 9 5 6 14 9 10 12 36 47 44 34 27 24
34 29 27 24 23 26 17 13 10 16 6 9 10 10 16 20 11 6 13 20 3 1 9 5 9 7 8 5 2 4 5 3 4 2 3 9 12 4 18 18 32 35 32 25 21
21 11 11 20 21 25 7 11 12 4 4 7 15 13 12 8 11 14 12 7 6 9 8 6 8 4 6 4 3 3 2 4 4 7 9 11 8 15 10 21 18 20 26 20 14
16 7 13 21 20 10 10 12 22 32 11 11 14 22 14 10 10 10 6 8 11 8 7 9 0 4 1 9 9 1 4 5 1 6 9 17 12 15 18 16 21 20 12 7 7
23 6 11 38 13 11 17 7 13 12 17 10 8 11 13 11 12 17 17 13 18 19 11 9 5 9 16 14 16 10 15 17 14 13 8 21 29 21 21 20 24 10 11 13 7
16 13 15 46 11 22 13 15 19 10 18 11 14 15 7 11 8 13 13 22 16 7 3 6 3 4 14 7 11 9 2 2 9 2 13 16 8 12 28 25 22 33 23 15 14
16 7 12 41 34 10 25 25 23 21 23 26 5 10 9 12 11 5 4 6 14 12 14 8 4 11 12 15 18 10 16 16 6 11 17 29 36 43 35 18 17 15 22 19 14
26 8 17 10 23 25 12 9 32 21 18 14 7 19 15 10 17 23 18 10 18 16 9 2 9 9 21 21 16 10 21 36 26 31 24 48 44 46 34 17 12 10 9 3 6
12 9 12 6 33 28 29 16 24 11 17 16 18 8 21 21 10 4 7 4 4 8 6 4 7 7 11 10 20 28 42 35 38 38 39 39 46 31 13 7 6 4 8 1 6
24 20 12 16 7 20 27 31 13 14 10 7 2 4 8 7 23 19 7 8 3 6 11 11 8 4 11 2 8 13 33 37 36 38 39 37 30 2 4 5 10 9 8 16 19
Wind_Direction_850mb
287 299 309 319 325 328 328 329 329 327 325 324 324 325 325 325 324 316 310 287 290 286 261 250 249 278 228 242 257 293 292 271 279 319 285 122 161 288 262 276 283 265 258 272 283
286 293 300 303 305 308 311 314 315 316 317 318 318 319 321 323 323 315 307 311 282 258 231 232 236 227 235 212 200 232 239 266 325 337 332 327 332 321 317 289 288 291 284 269 258
281 289 295 299 303 305 307 306 306 308 310 311 313 316 319 326 328 267 331 43 49 62 164 214 232 236 246 258 212 208 222 280 312 321 340 328 304 298 285 277 271 280 301 307 292
284 288 291 296 301 303 303 303 305 307 308 309 310 311 314 321 302 309 286 287 300 296 270 222 219 214 233 244 232 258 255 270 287 287 305 277 294 302 284 271 269 277 285 289 288
281 286 291 296 300 301 301 303 305 305 305 306 304 303 307 298 257 272 281 282 278 276 246 205 223 231 253 265 302 263 261 266 287 300 283 281 272 278 283 277 274 277 285 284 285
275 279 284 290 296 299 300 304 306 307 306 304 300 296 287 240 264 269 275 271 254 240 229 208 227 264 287 281 267 296 328 307 285 276 271 260 264 288 280 289 284 283 280 286 283
270 275 279 283 288 295 300 305 309 310 309 305 300 290 268 269 261 266 273 273 255 235 223 239 244 250 307 313 328 328 318 288 274 271 243 214 307 238 273 292 330 298 283 288 289
259 261 263 267 278 290 299 306 312 311 308 302 294 277 253 267 265 269 266 269 260 242 233 223 233 250 256 275 301 273 256 280 272 267 130 120 257 285 309 323 316 298 287 290 296
247 250 255 263 276 294 306 309 310 309 305 296 279 243 263 283 274 288 267 219 274 231 229 242 224 230 276 234 288 230 254 265 284 280 140 169 236 262 284 282 285 281 292 299 295
240 245 253 266 290 304 309 310 310 302 292 290 247 249 257 263 276 275 283 217 161 167 116 166 208 226 234 222 236 279 296 311 305 315 313 297 267 257 295 301 280 295 301 308 77
235 241 251 277 297 306 317 334 328 313 290 251 287 275 299 266 279 279 221 162 130 182 208 187 209 209 230 239 260 318 314 302 300 303 289 280 305 314 290 272 291 293 284 96 81
239 243 258 289 297 302 316 49 286 289 304 276 268 262 262 264 270 272 166 172 186 213 212 135 227 239 279 329 308 292 289 286 277 300 349 321 301 284 282 270 287 58 72 84 74
241 242 256 283 281 286 236 267 299 314 257 291 225 229 220 250 245 166 180 195 200 230 236 214 257 331 302 293 274 271 264 293 323 340 291 303 276 259 284 71 78 72 71 67 65
247 253 249 244 286 254 242 251 297 324 271 190 175 188 155 153 199 233 198 202 209 244 252 253 106 176 258 259 259 290 279 354 307 341 257 38 282 331 275 89 77 71 70 68 70
243 237 242 223 207 218 234 259 305 337 290 122 146 171 165 213 149 97 164 174 241 185 214 213 165 184 223 230 201 232 88 250 241 233 299 249 254 245 200 120 104 88 82 76 70
225 215 218 238 232 229 231 233 294 215 240 135 134 168 184 182 170 132 143 199 320 315 226 259 93 229 215 225 237 4 300 261 251 218 263 51 311 325 59 145 118 109 102 96 85
208 220 226 214 202 223 200 169 218 233 150 156 168 170 231 167 167 191 171 190 218 220 214 192 206 237 212 239 130 112 299 307 286 135 208 63 13 236 115 129 149 132 119 100 77
208 209 201 204 206 190 168 186 213 233 244 93 132 184 215 152 222 188 238 236 226 238 230 240 316 101 113 244 31 184 265 169 267 311 304 8 254 245 129 90 105 115 113 99 77
186 187 198 206 194 184 163 218 206 208 313 219 173 243 213 219 203 244 249 265 210 138 196 277 217 166 152 71 14 103 208 12 89 15 221 232 279 10 102 105 115 115 100 85 74
175 170 225 204 192 182 205 231 236 298 48 320 214 234 264 237 180 190 209 96 88 41 23 36 296 24 72 106 251 209 354 41 57 237 242 253 281 264 176 151 118 95 88 83 80
190 159 212 212 192 176 229 226 242 254 179 218 236 254 273 283 283 273 241 117 138 127 41 103 182 249 269 178 194 255 232 195 154 216 252 273 263 69 54 94 97 88 95 141 166
168 179 173 169 156 203 228 214 265 226 263 246 287 280 260 265 266 252 247 258 111 129 157 177 189 236 240 301 313 263 269 271 253 258 244 254 258 112 99 101 125 166 220 233 230
176 178 168 171 206 218 226 225 230 210 209 198 225 217 228 236 235 240 246 66 88 117 105 114 218 265 316 277 45 77 242 222 281 253 237 269 262 136 145 160 191 236 231 233 225
163 167 170 200 225 251 220 229 215 217 236 225 259 262 235 237 261 238 217 117 97 101 99 63 184 185 224 264 333 296 294 272 166 274 289 271 285 290 293 315 337 227 237 201 215
180 222 186 192 217 227 261 274 224 202 216 219 234 235 215 227 239 239 232 204 127 131 104 5 247 220 255 272 300 290 275 272 270 259 255 272 280 276 290 317 109 125 136 170 257
191 182 181 295 200 202 213 231 231 260 165 202 231 251 217 234 205 212 66 84 143 136 137 92 265 33 284 260 263 267 262 267 267 264 264 265 267 284 341 84 179 173 153 335 319
208 190 157 190 198 193 210 222 224 198 189 244 268 43 157 6 71 90 99 10 41 143 170 168 160 145 255 65 356 301 249 247 254 260 264 268 273 13 271 107 70 45 325 289 288